• In Belgien
  • Länderverzeichnis
  • Für 7 Tage
  • Wassertemperatur
  • Satellitenkarten
  • Wetterkarte
  • Widgets
  • user-avatar
    Anmelden

    Stündliche Wetter Jechegnadsor

    Heute, 23 November, Donnerstag

    Zeit Temperatur Niederschläge Wind Luftdruck Luftfeuchtigkeit
    00:00 -1°C° 0 mm 2 m/S 646 mmHg 72%
    01:00 -2°C° 0 mm 2 m/S 646 mmHg 70%
    02:00 -2°C° 0 mm 2 m/S 646 mmHg 69%
    03:00 -2°C° 0 mm 2 m/S 646 mmHg 67%
    04:00 -2°C° 0 mm 2 m/S 646 mmHg 69%
    05:00 -2°C° 0 mm 2 m/S 647 mmHg 70%
    06:00 -2°C° 0 mm 2 m/S 647 mmHg 72%
    07:00 -2°C° 0 mm 2 m/S 647 mmHg 72%
    08:00 -1°C° 0 mm 3 m/S 648 mmHg 72%
    09:00 0°C° 0 mm 3 m/S 647 mmHg 68%
    10:00 0°C° 0 mm 3 m/S 647 mmHg 64%
    11:00 +1°C° 0 mm 3 m/S 647 mmHg 59%
    12:00 +2°C° 0 mm 3 m/S 647 mmHg 55%
    13:00 +1°C° 0,1 mm 3 m/S 647 mmHg 55%
    14:00 +1°C° 0,1 mm 3 m/S 647 mmHg 55%
    15:00 +1°C° 0,1 mm 3 m/S 647 mmHg 54%
    16:00 +1°C° 0,1 mm 3 m/S 647 mmHg 58%
    17:00 +1°C° 0,1 mm 2 m/S 648 mmHg 62%
    18:00 -1°C° 0,1 mm 2 m/S 648 mmHg 66%
    19:00 -1°C° 0,1 mm 2 m/S 648 mmHg 67%
    20:00 -1°C° 0,1 mm 2 m/S 648 mmHg 68%
    21:00 -1°C° 0,1 mm 2 m/S 649 mmHg 69%
    22:00 -2°C° 0,2 mm 2 m/S 649 mmHg 70%
    23:00 -2°C° 0,2 mm 2 m/S 649 mmHg 71%

    Morgen, 24 November, Freitag

    Zeit Temperatur Niederschläge Wind Luftdruck Luftfeuchtigkeit
    00:00 -2°C° 0,2 mm 2 m/S 649 mmHg 72%
    01:00 -2°C° 0,1 mm 2 m/S 649 mmHg 72%
    02:00 -1°C° 0,1 mm 1 m/S 649 mmHg 72%
    03:00 -1°C° 0,1 mm 1 m/S 649 mmHg 73%
    04:00 -1°C° 0,3 mm 1 m/S 649 mmHg 75%
    05:00 -1°C° 0,3 mm 1 m/S 649 mmHg 77%
    06:00 -1°C° 0,3 mm 1 m/S 649 mmHg 80%
    07:00 -1°C° 0,3 mm 1 m/S 650 mmHg 79%
    08:00 -1°C° 0,3 mm 1 m/S 650 mmHg 78%
    09:00 -1°C° 0,3 mm 1 m/S 650 mmHg 77%
    10:00 0°C° 0,2 mm 1 m/S 650 mmHg 73%
    11:00 -2°C° 0,2 mm 2 m/S 650 mmHg 70%
    12:00 -1°C° 0,2 mm 2 m/S 651 mmHg 66%
    13:00 -1°C° 0,1 mm 2 m/S 650 mmHg 63%
    14:00 -2°C° 0,1 mm 2 m/S 650 mmHg 60%
    15:00 -2°C° 0,1 mm 2 m/S 650 mmHg 58%
    16:00 -1°C° 0 mm 1 m/S 651 mmHg 61%
    17:00 -2°C° 0 mm 1 m/S 651 mmHg 64%
    18:00 -3°C° 0 mm 1 m/S 651 mmHg 67%
    19:00 -3°C° 0 mm 1 m/S 651 mmHg 67%
    20:00 -3°C° 0 mm 1 m/S 651 mmHg 67%
    21:00 -5°C° 0 mm 2 m/S 652 mmHg 66%
    22:00 -6°C° 0 mm 2 m/S 652 mmHg 67%
    23:00 -6°C° 0 mm 2 m/S 652 mmHg 68%

    übermorgen, 25 November, Samstag

    Zeit Temperatur Niederschläge Wind Luftdruck Luftfeuchtigkeit
    00:00 -6°C° 0 mm 2 m/S 652 mmHg 69%
    01:00 -6°C° 0 mm 2 m/S 652 mmHg 71%
    02:00 -6°C° 0 mm 2 m/S 652 mmHg 73%
    03:00 -6°C° 0 mm 2 m/S 652 mmHg 76%
    04:00 -6°C° 0 mm 2 m/S 653 mmHg 77%
    05:00 -4°C° 0 mm 1 m/S 653 mmHg 78%
    06:00 -4°C° 0 mm 1 m/S 653 mmHg 79%
    07:00 -4°C° 0 mm 1 m/S 654 mmHg 76%
    08:00 -3°C° 0 mm 1 m/S 655 mmHg 74%
    09:00 -2°C° 0 mm 1 m/S 655 mmHg 71%
    10:00 -3°C° 0 mm 2 m/S 656 mmHg 67%
    11:00 -3°C° 0 mm 2 m/S 656 mmHg 63%
    12:00 -2°C° 0 mm 2 m/S 656 mmHg 58%
    13:00 -2°C° 0 mm 2 m/S 656 mmHg 57%
    14:00 -2°C° 0 mm 2 m/S 656 mmHg 57%
    15:00 -2°C° 0 mm 2 m/S 656 mmHg 56%
    16:00 -3°C° 0 mm 2 m/S 656 mmHg 60%
    17:00 -3°C° 0 mm 1 m/S 656 mmHg 64%
    18:00 -4°C° 0 mm 1 m/S 656 mmHg 68%
    19:00 -6°C° 0 mm 2 m/S 657 mmHg 66%
    20:00 -6°C° 0 mm 2 m/S 657 mmHg 64%
    21:00 -6°C° 0 mm 2 m/S 657 mmHg 62%
    22:00 -6°C° 0 mm 2 m/S 657 mmHg 60%
    23:00 -6°C° 0 mm 2 m/S 657 mmHg 58%

    26 November, Sonntag

    Zeit Temperatur Niederschläge Wind Luftdruck Luftfeuchtigkeit
    00:00 -6°C° 0 mm 2 m/S 657 mmHg 56%
    01:00 -6°C° 0 mm 2 m/S 657 mmHg 55%
    02:00 -6°C° 0 mm 2 m/S 657 mmHg 54%
    03:00 -6°C° 0 mm 2 m/S 657 mmHg 53%
    04:00 -6°C° 0 mm 2 m/S 657 mmHg 52%
    05:00 -6°C° 0 mm 2 m/S 657 mmHg 52%
    06:00 -6°C° 0 mm 2 m/S 656 mmHg 51%
    07:00 -4°C° 0 mm 2 m/S 657 mmHg 49%
    08:00 -1°C° 0 mm 1 m/S 657 mmHg 47%
    09:00 +1°C° 0 mm 1 m/S 658 mmHg 45%
    10:00 +1°C° 0 mm 2 m/S 657 mmHg 43%
    11:00 +2°C° 0 mm 2 m/S 657 mmHg 41%
    12:00 +3°C° 0 mm 2 m/S 657 mmHg 40%
    13:00 +3°C° 0 mm 2 m/S 656 mmHg 40%
    14:00 +4°C° 0 mm 1 m/S 656 mmHg 40%
    15:00 +4°C° 0 mm 1 m/S 655 mmHg 41%
    16:00 +2°C° 0 mm 1 m/S 655 mmHg 42%
    17:00 +1°C° 0 mm 1 m/S 655 mmHg 44%
    18:00 -1°C° 0 mm 1 m/S 654 mmHg 45%
    19:00 -3°C° 0 mm 2 m/S 655 mmHg 42%
    20:00 -3°C° 0 mm 2 m/S 655 mmHg 38%
    21:00 -3°C° 0 mm 2 m/S 655 mmHg 35%
    22:00 -3°C° 0 mm 2 m/S 655 mmHg 34%
    23:00 -3°C° 0 mm 2 m/S 654 mmHg 33%

    27 November, Montag

    Zeit Temperatur Niederschläge Wind Luftdruck Luftfeuchtigkeit
    00:00 -3°C° 0 mm 2 m/S 654 mmHg 32%
    01:00 -3°C° 0 mm 2 m/S 654 mmHg 32%
    02:00 -2°C° 0 mm 1 m/S 654 mmHg 32%
    03:00 -2°C° 0 mm 1 m/S 654 mmHg 32%
    04:00 -2°C° 0 mm 1 m/S 653 mmHg 33%
    05:00 -2°C° 0 mm 1 m/S 653 mmHg 34%
    06:00 -2°C° 0 mm 1 m/S 653 mmHg 34%
    07:00 0°C° 0 mm 1 m/S 654 mmHg 34%
    08:00 +1°C° 0 mm 1 m/S 654 mmHg 34%
    09:00 +3°C° 0 mm 1 m/S 655 mmHg 34%
    10:00 +4°C° 0 mm 1 m/S 654 mmHg 34%
    11:00 +5°C° 0 mm 1 m/S 654 mmHg 33%
    12:00 +5°C° 0 mm 2 m/S 654 mmHg 33%
    13:00 +6°C° 0 mm 1 m/S 653 mmHg 34%
    14:00 +6°C° 0 mm 1 m/S 653 mmHg 34%
    15:00 +6°C° 0 mm 1 m/S 653 mmHg 35%
    16:00 +4°C° 0 mm 1 m/S 652 mmHg 37%
    17:00 +3°C° 0 mm 1 m/S 652 mmHg 38%
    18:00 +1°C° 0 mm 1 m/S 652 mmHg 40%
    19:00 +1°C° 0 mm 1 m/S 652 mmHg 40%
    20:00 +1°C° 0 mm 1 m/S 652 mmHg 40%
    21:00 +1°C° 0 mm 1 m/S 652 mmHg 39%
    22:00 +1°C° 0 mm 1 m/S 652 mmHg 41%
    23:00 0°C° 0 mm 1 m/S 652 mmHg 42%

    28 November, Dienstag

    Zeit Temperatur Niederschläge Wind Luftdruck Luftfeuchtigkeit
    00:00 0°C° 0 mm 1 m/S 652 mmHg 44%
    01:00 0°C° 0 mm 1 m/S 652 mmHg 46%
    02:00 0°C° 0 mm 1 m/S 652 mmHg 48%
    03:00 0°C° 0 mm 1 m/S 651 mmHg 50%
    04:00 -2°C° 0 mm 2 m/S 651 mmHg 52%
    05:00 -2°C° 0 mm 2 m/S 651 mmHg 54%
    06:00 -2°C° 0 mm 2 m/S 651 mmHg 56%
    07:00 -1°C° 0 mm 2 m/S 652 mmHg 54%
    08:00 +1°C° 0 mm 2 m/S 652 mmHg 52%
    09:00 +3°C° 0 mm 2 m/S 653 mmHg 50%
    10:00 +4°C° 0 mm 2 m/S 652 mmHg 50%
    11:00 +5°C° 0 mm 2 m/S 652 mmHg 50%
    12:00 +6°C° 0 mm 2 m/S 652 mmHg 49%
    13:00 +5°C° 0 mm 2 m/S 651 mmHg 50%
    14:00 +5°C° 0 mm 2 m/S 651 mmHg 52%
    15:00 +5°C° 0 mm 2 m/S 651 mmHg 53%
    16:00 +4°C° 0 mm 2 m/S 651 mmHg 57%
    17:00 +2°C° 0 mm 2 m/S 651 mmHg 61%
    18:00 +1°C° 0 mm 2 m/S 651 mmHg 64%
    19:00 +1°C° 0 mm 2 m/S 651 mmHg 65%
    20:00 +1°C° 0 mm 2 m/S 651 mmHg 66%
    21:00 +1°C° 0 mm 2 m/S 652 mmHg 66%
    22:00 +1°C° 0 mm 2 m/S 652 mmHg 68%
    23:00 -1°C° 0 mm 2 m/S 652 mmHg 69%
    Mehr zeigen